Skip Page Navigation
NASA JPL Caltech
NASA Logo - Jet Propulsion Laboratory + View the NASA Portal
+ Near-Earth Object (NEO) Program
Search JPL
JPL Home Earth Solar System Stars & Galaxies Technology
JPL Solar System Dynamics
BODIES ORBITS EPHEMERIDES TOOLS PHYSICAL DATA DISCOVERY FAQ SITE MAP
JPL Small-Body Database Browser
Search: [ help ]  
73708 (1992 DV)
Classification: Main-belt Asteroid          SPK-ID: 2073708
Ephemeris | Orbit Diagram | Orbital Elements | Physical Parameters | Discovery Circumstances | Close-Approach Data ]

[ show orbit diagram ]
Orbital Elements at Epoch 2457000.5 (2014-Dec-09.0) TDB
Reference: JPL 14 (heliocentric ecliptic J2000)
 Element Value Uncertainty (1-sigma)   Units 
e .2884811348143442 7.096e-08  
a 2.678140945621355 1.7029e-08 AU
q 1.905547806435746 1.8664e-07 AU
i 7.945811160907921 7.5745e-06 deg
node 149.5191627660934 6.2231e-05 deg
peri 5.359916693030526 6.4511e-05 deg
M 78.05755704723333 1.4127e-05 deg
tp 2456653.394875597204
(2013-Dec-26.89487560)
6.184e-05 JED
period 1600.842372115148
4.38
1.5269e-05
4.18e-08
d
yr
n .224881603754867 2.1449e-09 deg/d
Q 3.450734084806964 2.1942e-08 AU
  Orbit Determination Parameters
   # obs. used (total)      389  
   data-arc span      8162 days (22.35 yr)  
   first obs. used      1992-02-25  
   last obs. used      2014-07-01  
   planetary ephem.      DE431  
   SB-pert. ephem.      SB431-BIG16  
   condition code      0  
   fit RMS      .58739  
   data source      ORB  
   producer      Otto Matic  
   solution date      2014-Oct-09 16:26:21  

Additional Information
 Earth MOID = .916565 AU 
 T_jup = 3.304 
[ show covariance matrix ]

Ephemeris | Orbit Diagram | Orbital Elements | Physical Parameters | Discovery Circumstances | Close-Approach Data ]

Physical Parameter Table
Parameter Symbol Value Units Sigma Reference Notes
absolute magnitude H 15.2 mag n/a MPO280220  

73708 (1992 DV)          Discovered 1992-Feb-25 by Ueda, S., Kaneda, H. at Kushiro (399)
Reference: 20040415/Numbers.arcLast Updated: 2004-04-19

[ show close-approach data ]
Ephemeris | Orbit Diagram | Orbital Elements | Physical Parameters | Discovery Circumstances | Close-Approach Data ]
ABOUT SSD CREDITS/AWARDS PRIVACY/COPYRIGHT GLOSSARY LINKS
FirstGov 2014-Dec-20 04:25 UT
(server date/time)  
NASA Home Page
Site Manager:   Donald K. Yeomans
Webmaster  Alan B. Chamberlin